Time,TemperatureF,DewpointF,PressureIn,WindDirection,WindDirectionDegrees,WindSpeedMPH,WindSpeedGustMPH,Humidity,HourlyPrecipIn,Conditions,Clouds,dailyrainin,SoftwareType,DateUTC
2013-04-23 00:00:00,59.3,51.0,30.16,ENE,61,0.0,3.0,73,0.00,,,0.00,weatherlink.com 1.10,2013-04-23 04:00:00,
2013-04-23 00:15:00,58.7,50.0,30.16,ENE,64,0.0,2.0,74,0.00,,,0.00,weatherlink.com 1.10,2013-04-23 04:15:00,
2013-04-23 00:30:00,58.3,50.0,30.16,ENE,67,1.0,2.0,75,0.00,,,0.00,weatherlink.com 1.10,2013-04-23 04:30:00,
2013-04-23 00:45:00,58.2,50.0,30.16,ENE,67,1.0,2.0,74,0.00,,,0.00,weatherlink.com 1.10,2013-04-23 04:45:00,
2013-04-23 01:00:00,58.0,50.0,30.16,East,91,0.0,3.0,74,0.00,,,0.00,weatherlink.com 1.10,2013-04-23 05:00:00,
2013-04-23 01:15:00,57.5,50.0,30.16,East,86,0.0,2.0,75,0.00,,,0.00,weatherlink.com 1.10,2013-04-23 05:15:00,
2013-04-23 01:30:00,57.1,50.0,30.16,East,86,0.0,2.0,76,0.00,,,0.00,weatherlink.com 1.10,2013-04-23 05:30:00,
2013-04-23 01:45:00,56.8,49.0,30.16,East,101,1.0,1.0,76,0.00,,,0.00,weatherlink.com 1.10,2013-04-23 05:45:00,
2013-04-23 02:00:00,56.1,50.0,30.15,East,101,0.0,2.0,79,0.00,,,0.00,weatherlink.com 1.10,2013-04-23 06:00:00,
2013-04-23 02:15:00,55.3,50.0,30.14,East,101,0.0,1.0,82,0.00,,,0.00,weatherlink.com 1.10,2013-04-23 06:15:00,
2013-04-23 02:30:00,55.0,50.0,30.14,SSE,168,0.0,2.0,82,0.00,,,0.00,weatherlink.com 1.10,2013-04-23 06:30:00,
2013-04-23 02:45:00,54.1,49.0,30.14,SSE,168,0.0,0.0,84,0.00,,,0.00,weatherlink.com 1.10,2013-04-23 06:45:00,
2013-04-23 03:01:00,53.9,50.0,30.13,SW,236,1.0,1.0,85,0.00,,,0.00,weatherlink.com 1.10,2013-04-23 07:01:00,
2013-04-23 03:15:00,54.2,50.0,30.13,SSE,150,1.0,2.0,84,0.00,,,0.00,weatherlink.com 1.10,2013-04-23 07:15:00,
2013-04-23 03:30:00,54.5,49.0,30.13,ESE,114,0.0,1.0,83,0.00,,,0.00,weatherlink.com 1.10,2013-04-23 07:30:00,
2013-04-23 03:45:00,53.9,50.0,30.13,ESE,114,0.0,1.0,85,0.00,,,0.00,weatherlink.com 1.10,2013-04-23 07:45:00,
2013-04-23 04:01:00,53.8,50.0,30.13,East,82,1.0,3.0,86,0.00,,,0.00,weatherlink.com 1.10,2013-04-23 08:01:00,
2013-04-23 04:16:00,54.1,49.0,30.13,ENE,65,0.0,2.0,84,0.00,,,0.00,weatherlink.com 1.10,2013-04-23 08:16:00,
2013-04-23 04:31:00,53.9,50.0,30.13,ENE,61,0.0,2.0,85,0.00,,,0.00,weatherlink.com 1.10,2013-04-23 08:31:00,
2013-04-23 04:46:00,53.9,50.0,30.13,ESE,102,0.0,3.0,85,0.00,,,0.00,weatherlink.com 1.10,2013-04-23 08:46:00,
2013-04-23 05:01:00,53.7,49.0,30.13,East,89,0.0,1.0,85,0.00,,,0.00,weatherlink.com 1.10,2013-04-23 09:01:00,
2013-04-23 05:16:00,53.5,50.0,30.13,ESE,117,0.0,1.0,86,0.00,,,0.00,weatherlink.com 1.10,2013-04-23 09:16:00,
2013-04-23 05:31:00,53.2,50.0,30.13,ENE,74,1.0,2.0,87,0.00,,,0.00,weatherlink.com 1.10,2013-04-23 09:31:00,
2013-04-23 05:46:00,53.2,50.0,30.13,ENE,75,1.0,2.0,87,0.00,,,0.00,weatherlink.com 1.10,2013-04-23 09:46:00,
2013-04-23 06:01:00,53.0,50.0,30.14,ENE,61,0.0,2.0,88,0.00,,,0.00,weatherlink.com 1.10,2013-04-23 10:01:00,
2013-04-23 06:16:00,52.4,50.0,30.14,ENE,61,0.0,1.0,91,0.00,,,0.00,weatherlink.com 1.10,2013-04-23 10:16:00,
2013-04-23 06:31:00,52.8,50.0,30.14,ENE,70,0.0,2.0,89,0.00,,,0.00,weatherlink.com 1.10,2013-04-23 10:31:00,
2013-04-23 06:46:00,53.0,50.0,30.15,East,80,2.0,3.0,88,0.00,,,0.00,weatherlink.com 1.10,2013-04-23 10:46:00,
2013-04-23 07:01:00,53.2,50.0,30.15,ENE,60,2.0,2.0,87,0.00,,,0.00,weatherlink.com 1.10,2013-04-23 11:01:00,
2013-04-23 07:16:00,53.6,50.0,30.15,SE,131,0.0,5.0,87,0.00,,,0.00,weatherlink.com 1.10,2013-04-23 11:16:00,
2013-04-23 07:31:00,53.8,50.0,30.16,ENE,57,2.0,4.0,86,0.00,,,0.00,weatherlink.com 1.10,2013-04-23 11:31:00,
2013-04-23 07:46:00,54.0,50.0,30.16,East,92,1.0,4.0,86,0.00,,,0.00,weatherlink.com 1.10,2013-04-23 11:46:00,
2013-04-23 08:01:00,54.4,50.0,30.17,NE,55,1.0,3.0,86,0.00,,,0.00,weatherlink.com 1.10,2013-04-23 12:01:00,
2013-04-23 08:16:00,54.7,51.0,30.18,ENE,75,0.0,2.0,86,0.00,,,0.00,weatherlink.com 1.10,2013-04-23 12:16:00,
2013-04-23 08:31:00,55.0,51.0,30.18,ENE,59,0.0,3.0,85,0.00,,,0.00,weatherlink.com 1.10,2013-04-23 12:31:00,
2013-04-23 08:47:00,55.3,51.0,30.18,NE,49,1.0,2.0,85,0.00,,,0.00,weatherlink.com 1.10,2013-04-23 12:47:00,
2013-04-23 09:02:00,55.8,51.0,30.18,NW,309,0.0,2.0,85,0.00,,,0.00,weatherlink.com 1.10,2013-04-23 13:02:00,
2013-04-23 09:17:00,55.9,51.0,30.18,NE,53,1.0,3.0,84,0.00,,,0.00,weatherlink.com 1.10,2013-04-23 13:17:00,
2013-04-23 09:32:00,56.4,51.0,30.18,ENE,69,1.0,3.0,82,0.00,,,0.00,weatherlink.com 1.10,2013-04-23 13:32:00,
2013-04-23 09:47:00,56.2,51.0,30.18,East,94,3.0,5.0,83,0.00,,,0.00,weatherlink.com 1.10,2013-04-23 13:47:00,
2013-04-23 10:02:00,57.0,52.0,30.18,West,269,0.0,3.0,83,0.00,,,0.00,weatherlink.com 1.10,2013-04-23 14:02:00,
2013-04-23 10:17:00,57.2,52.0,30.19,NE,46,1.0,4.0,82,0.00,,,0.00,weatherlink.com 1.10,2013-04-23 14:17:00,
2013-04-23 10:32:00,57.5,52.0,30.19,NE,49,1.0,2.0,81,0.00,,,0.00,weatherlink.com 1.10,2013-04-23 14:32:00,
2013-04-23 10:47:00,57.8,52.0,30.19,ENE,60,2.0,4.0,81,0.00,,,0.00,weatherlink.com 1.10,2013-04-23 14:47:00,
2013-04-23 11:02:00,58.8,53.0,30.20,NW,319,0.0,3.0,81,0.00,,,0.00,weatherlink.com 1.10,2013-04-23 15:02:00,
2013-04-23 11:17:00,58.8,53.0,30.20,NE,36,0.0,3.0,80,0.00,,,0.00,weatherlink.com 1.10,2013-04-23 15:17:00,
2013-04-23 11:32:00,60.1,53.0,30.20,East,80,1.0,6.0,78,0.00,,,0.00,weatherlink.com 1.10,2013-04-23 15:32:00,
2013-04-23 11:47:00,60.3,53.0,30.20,ESE,102,1.0,5.0,77,0.00,,,0.00,weatherlink.com 1.10,2013-04-23 15:47:00,
2013-04-23 12:02:00,61.4,54.0,30.20,NE,34,2.0,4.0,77,0.00,,,0.00,weatherlink.com 1.10,2013-04-23 16:02:00,
2013-04-23 12:17:00,62.8,54.0,30.19,West,275,1.0,3.0,74,0.00,,,0.00,weatherlink.com 1.10,2013-04-23 16:17:00,
2013-04-23 12:32:00,64.0,55.0,30.19,NNE,22,0.0,5.0,72,0.00,,,0.00,weatherlink.com 1.10,2013-04-23 16:32:00,
2013-04-23 12:47:00,65.0,55.0,30.19,West,259,2.0,4.0,69,0.00,,,0.00,weatherlink.com 1.10,2013-04-23 16:47:00,
2013-04-23 13:02:00,66.2,56.0,30.18,ENE,78,3.0,6.0,69,0.00,,,0.00,weatherlink.com 1.10,2013-04-23 17:02:00,
2013-04-23 13:17:00,67.9,57.0,30.17,NE,36,1.0,5.0,68,0.00,,,0.00,weatherlink.com 1.10,2013-04-23 17:17:00,
2013-04-23 13:32:00,66.5,56.0,30.17,East,100,2.0,3.0,69,0.00,,,0.00,weatherlink.com 1.10,2013-04-23 17:32:00,
2013-04-23 13:47:00,68.1,55.0,30.16,East,85,5.0,6.0,64,0.00,,,0.00,weatherlink.com 1.10,2013-04-23 17:47:00,
2013-04-23 14:02:00,67.8,56.0,30.16,SSE,168,1.0,3.0,66,0.00,,,0.00,weatherlink.com 1.10,2013-04-23 18:02:00,
2013-04-23 14:17:00,66.0,56.0,30.16,ENE,76,0.0,3.0,69,0.00,,,0.00,weatherlink.com 1.10,2013-04-23 18:17:00,
2013-04-23 14:32:00,67.0,56.0,30.16,East,88,3.0,5.0,69,0.00,,,0.00,weatherlink.com 1.10,2013-04-23 18:32:00,
2013-04-23 14:47:00,67.0,56.0,30.15,East,89,2.0,3.0,69,0.00,,,0.00,weatherlink.com 1.10,2013-04-23 18:47:00,
2013-04-23 15:02:00,67.0,56.0,30.15,East,79,2.0,5.0,67,0.00,,,0.00,weatherlink.com 1.10,2013-04-23 19:02:00,
2013-04-23 15:17:00,68.9,57.0,30.15,East,88,2.0,5.0,65,0.00,,,0.00,weatherlink.com 1.10,2013-04-23 19:17:00,
2013-04-23 15:32:00,67.6,56.0,30.14,ESE,117,2.0,7.0,67,0.00,,,0.00,weatherlink.com 1.10,2013-04-23 19:32:00,
2013-04-23 15:47:00,69.6,56.0,30.14,NE,52,2.0,3.0,62,0.00,,,0.00,weatherlink.com 1.10,2013-04-23 19:47:00,
2013-04-23 16:02:00,68.3,56.0,30.14,ENE,57,1.0,3.0,66,0.00,,,0.00,weatherlink.com 1.10,2013-04-23 20:02:00,
2013-04-23 16:18:00,67.3,56.0,30.14,ENE,69,0.0,4.0,67,0.00,,,0.00,weatherlink.com 1.10,2013-04-23 20:18:00,
2013-04-23 16:32:00,68.5,56.0,30.13,East,101,2.0,6.0,64,0.00,,,0.00,weatherlink.com 1.10,2013-04-23 20:32:00,
2013-04-23 16:47:00,68.4,56.0,30.13,ENE,72,2.0,3.0,64,0.00,,,0.00,weatherlink.com 1.10,2013-04-23 20:47:00,
2013-04-23 17:02:00,68.7,55.0,30.12,ENE,71,0.0,5.0,63,0.00,,,0.00,weatherlink.com 1.10,2013-04-23 21:02:00,
2013-04-23 17:17:00,68.2,55.0,30.12,ENE,69,0.0,3.0,63,0.00,,,0.00,weatherlink.com 1.10,2013-04-23 21:17:00,
2013-04-23 17:32:00,67.6,57.0,30.12,East,88,2.0,6.0,69,0.00,,,0.00,weatherlink.com 1.10,2013-04-23 21:32:00,
2013-04-23 17:47:00,66.7,57.0,30.12,WSW,250,1.0,5.0,71,0.00,,,0.00,weatherlink.com 1.10,2013-04-23 21:47:00,
2013-04-23 18:02:00,66.1,56.0,30.12,East,86,3.0,6.0,71,0.00,,,0.00,weatherlink.com 1.10,2013-04-23 22:02:00,
2013-04-23 18:17:00,65.8,57.0,30.12,ESE,104,3.0,6.0,73,0.00,,,0.00,weatherlink.com 1.10,2013-04-23 22:17:00,
2013-04-23 18:32:00,64.8,56.0,30.12,WSW,237,1.0,6.0,74,0.00,,,0.00,weatherlink.com 1.10,2013-04-23 22:32:00,
2013-04-23 18:47:00,64.1,56.0,30.12,ESE,104,2.0,3.0,76,0.00,,,0.00,weatherlink.com 1.10,2013-04-23 22:47:00,
2013-04-23 19:02:00,62.9,56.0,30.12,East,95,1.0,4.0,78,0.00,,,0.00,weatherlink.com 1.10,2013-04-23 23:02:00,
2013-04-23 19:17:00,62.1,56.0,30.13,North,9,0.0,2.0,79,0.00,,,0.00,weatherlink.com 1.10,2013-04-23 23:17:00,
2013-04-23 19:32:00,61.4,56.0,30.13,East,94,1.0,3.0,81,0.00,,,0.00,weatherlink.com 1.10,2013-04-23 23:32:00,
2013-04-23 19:47:00,60.6,55.0,30.13,East,98,1.0,5.0,83,0.00,,,0.00,weatherlink.com 1.10,2013-04-23 23:47:00,
2013-04-23 20:02:00,59.8,55.0,30.13,East,94,1.0,3.0,84,0.00,,,0.00,weatherlink.com 1.10,2013-04-24 00:02:00,
2013-04-23 20:17:00,59.1,55.0,30.13,East,94,0.0,1.0,86,0.00,,,0.00,weatherlink.com 1.10,2013-04-24 00:17:00,
2013-04-23 20:32:00,58.4,55.0,30.13,East,94,0.0,1.0,88,0.00,,,0.00,weatherlink.com 1.10,2013-04-24 00:32:00,
2013-04-23 20:47:00,57.8,55.0,30.13,East,94,0.0,2.0,90,0.00,,,0.00,weatherlink.com 1.10,2013-04-24 00:47:00,
2013-04-23 21:02:00,57.3,55.0,30.14,East,94,0.0,1.0,90,0.00,,,0.00,weatherlink.com 1.10,2013-04-24 01:02:00,
2013-04-23 21:17:00,56.5,54.0,30.15,East,94,0.0,0.0,92,0.00,,,0.00,weatherlink.com 1.10,2013-04-24 01:17:00,
2013-04-23 21:32:00,56.0,54.0,30.16,East,94,0.0,0.0,93,0.00,,,0.00,weatherlink.com 1.10,2013-04-24 01:32:00,
2013-04-23 21:47:00,55.4,54.0,30.16,East,94,0.0,0.0,94,0.00,,,0.00,weatherlink.com 1.10,2013-04-24 01:47:00,
2013-04-23 22:02:00,55.0,54.0,30.17,East,94,0.0,1.0,95,0.00,,,0.00,weatherlink.com 1.10,2013-04-24 02:02:00,
2013-04-23 22:17:00,54.7,54.0,30.17,East,94,0.0,0.0,96,0.00,,,0.00,weatherlink.com 1.10,2013-04-24 02:17:00,
2013-04-23 22:32:00,54.0,53.0,30.17,East,94,0.0,1.0,95,0.00,,,0.00,weatherlink.com 1.10,2013-04-24 02:32:00,
2013-04-23 22:47:00,53.4,52.0,30.17,East,94,0.0,1.0,95,0.00,,,0.00,weatherlink.com 1.10,2013-04-24 02:47:00,
2013-04-23 23:03:00,53.6,53.0,30.17,East,94,0.0,0.0,96,0.00,,,0.00,weatherlink.com 1.10,2013-04-24 03:03:00,
2013-04-23 23:18:00,53.5,53.0,30.17,East,94,0.0,0.0,97,0.00,,,0.00,weatherlink.com 1.10,2013-04-24 03:18:00,
2013-04-23 23:33:00,52.8,52.0,30.17,East,94,0.0,0.0,96,0.00,,,0.00,weatherlink.com 1.10,2013-04-24 03:33:00,
2013-04-23 23:48:00,52.8,52.0,30.16,East,94,0.0,0.0,97,0.00,,,0.00,weatherlink.com 1.10,2013-04-24 03:48:00,